Home   Weather   Bruck an der Leitha   Past weeks

Flag for Austria Past Weather in Bruck an der Leitha, Lower Austria, Austria — Yesterday and Last 2 Weeks

Now
40 °F

Passing clouds.


Feels Like: N/A
Forecast: 43 / 65 °F
Wind: N/A

Location: Wien / Schwechat-Flughafen

Current Time: Apr 25, 2017 at 5:19:22 am

Latest Report: Apr 25, 2017 at 4:00 am


Visibility: 7 mi

Pressure: 29.83 "Hg

Humidity: 97%

Dew Point: 39 °F

Location of Bruck an der LeithaLocation

Past Weather in Bruck an der Leitha — Graph

°F

Bruck an der Leitha Temperature Yesterday

Maximum temperature yesterday: 60 °F (at 6:00 pm)
Minimum temperature yesterday: 36 °F (at 5:00 am)
Average temperature yesterday: 48 °F

High & Low Weather Summary for the Past Weeks

 TemperatureHumidityPressure
High70 °F (Apr 10, 5:00 pm)100% (Apr 19, 6:00 pm)30.50 "Hg (Apr 19, 6:00 pm)
Low32 °F (Apr 19, 6:00 pm)39% (Apr 10, 4:00 pm)29.81 "Hg (Apr 13, 7:00 am)
Average47 °F67%30.08 "Hg
* Reported Apr 10 3:00 am — Apr 25 3:00 am, Bruck an der Leitha, Weather by CustomWeather, © 2017

Note: Actual official high and low records may vary slightly from our data, if they occured in-between our weather recording intervals... More about our weather records

Advertising

Bruck an der Leitha Weather History for the Previous 24 Hours

Scroll right to see more
 ConditionsComfort  
Time TempWeatherWind HumidityBarometerVisibility
3:00 am
Tue, Apr 25
41 °FPassing clouds.3 mph97%29.84 "Hg8 mi
2:00 am44 °FPassing clouds.N/A90%29.86 "Hg13 mi
1:00 am46 °FPassing clouds.N/A82%29.87 "Hg19 mi
12:00 am45 °FPassing clouds.3 mph83%29.88 "Hg19 mi
11:00 pm
Mon, Apr 24
46 °FPassing clouds.5 mph79%29.89 "Hg22 mi
9:00 pm55 °FPassing clouds.6 mph56%29.91 "Hg28 mi
8:00 pm56 °FPassing clouds.6 mph52%29.92 "Hg28 mi
7:00 pm59 °FScattered clouds.6 mph44%29.93 "Hg25 mi
6:00 pm60 °FPassing clouds.6 mph42%29.95 "Hg19 mi
5:00 pm59 °FPassing clouds.7 mph42%29.97 "Hg17 mi
4:00 pm58 °FPassing clouds.7 mph43%30.01 "Hg17 mi
3:00 pm56 °FPassing clouds.7 mph46%30.04 "Hg22 mi
2:00 pm55 °FPassing clouds.6 mph48%30.08 "Hg19 mi
1:00 pm53 °FPassing clouds.6 mph45%30.11 "Hg15 mi
12:00 pm51 °FPassing clouds.5 mph45%30.14 "Hg14 mi
11:00 am49 °FPassing clouds.N/A45%30.16 "Hg19 mi
10:00 am49 °FPassing clouds.N/A48%30.18 "Hg14 mi
9:00 am47 °FPassing clouds.N/A54%30.20 "Hg19 mi
8:00 am40 °FPassing clouds.N/A71%30.21 "Hg22 mi
7:00 am39 °FPassing clouds.N/A68%30.21 "Hg28 mi
6:00 am37 °FPassing clouds.3 mph71%30.21 "Hg31 mi
5:00 am36 °FPassing clouds.3 mph73%30.22 "Hg31 mi
Weather by CustomWeather, © 2017

See weather overviewHow to use our weather pages